Terug naar catalogus

QIANFAN-97

ActiefCommunicatiePO
NORAD 66039·PAYLOAD·🇨🇳 China

Gelanceerd Oct 17, 2025 vanaf Taiyuan Satellite Launch Center

Loading…

Volgende Passages (komende 24 uur)

TLE

VersSource: Space-Track

Epoch: Sep 14, 2026, 20:14 UTC

1 66039U 25233G   26257.84325660  .00000070  00000-0  89289-4 0  9992
2 66039  89.0052  34.1260 0001845  92.5029 267.6333 13.51028432 45289

Volg QIANFAN-97 in realtime met AllMySat

Download on the App Store